Погода в Каце

Погода в Каце : погода сейчас, прогноз погоды и архив. Всё, что Вы хотите узнать о погоде в Каце!

Поиск расширенной информации на нашем сайте:

Другие новости

Новости СМИ2

Главная страница сайта

Новости сайта

02.10.2013

Напоминаем, что на нашем новом сайте вы можете получить высокодетализированные прогнозы погоды по пунктам России, СНГ и мира (включающие важные для авиации метеовеличины, такие как направление и скорость ветра, видимость, явления погоды, количество и форма облачности, нижняя и верхняя граница облачности), а также ознакомиться с разнообразными материалами по авиационной метеорологии и подборкой полезных ссылок на эту тему.

Сайт Метеоцентр.Азия посвящён разработке технологий оптимизации авиаметеорологического обслуживания, включая проектирование и перспективное создание нескольких автоматизированных авиаметеорологических систем:
- система выпуска высокодетальных прогностических карт явлений погоды для нижнего воздушного пространства по России и ближнему зарубежью;
- система верификации прогнозов TAF (выпускаемых синоптиками официальных АМСГ РФ и ближнего зарубежья) и AUTOTAF (выпускаемых сайтом Метеоцентр.Азия) - выявление ошибок, онлайн-сопоставление с фактической погодой METAR, автоматическое внесение коррективов в прогнозы при резком отклонении фактической погоды от прогноза, подсчёт оправдываемости прогнозов по элементам и в целом;
- система обработки, анализа и отображения авиаметеорологической информации для применения провайдерами метеорологической информации.

Рекомендуем: Видеоинтерфейс, интерфейс hdmi мультимедийный: схема распиновки.

Погода в Каце - сегодня

Время (UTC), дата Ветер
(°,м/с) 
Видим.   Явления Облачность Т
(°С)
Тd
(°С)
f(%) Тe
(°С)
Pmin
(гПа)
dP
(гПа)
Po
(мм)
O2
(г/м3)
Тmin Tmax R s Состояние
почвы
21 18.01.17 230 (ЮЗ) 20000 м    10/10 2000 м 
[Ns]
-14.7 -16.9 83 -18  1031.5  -0.7  726  311           
00 19.01.17 260 (З) 10 км  слаб. снег  10/10 2000 м 
[Ns]
-15.4 -17.8 82 -20  1032.2  0.5  727  312  -15.9    0.8  67  равномерный
сухой снег
100% 
03 19.01.17 260 (З) 20000 м  слаб. снег  9/9 2000 м средняя 
[As trans]
-16.8 -19.5 80 -21  1033.8  1.2  728  314  -16.8         
06 19.01.17 260 (З) 20000 м  {снег}  5/5 1000 м 
[Cu med, cong]
-16.8 -20.3 74 -22  1034.6  0.8  728  314           
09 19.01.17 250 (З) 20000 м    5/0 верхняя 
[Ci sp]
-17.2 -20.4 76 -21  1035.9  729  315           
12 19.01.17 240 (ЮЗ) 20000 м    6/0 верхняя 
[Ci sp]
-19.7 -21.8 83 -24  1038.3  1.7  730  319    -15.4  0.2     
15 19.01.17 230 (ЮЗ) 20000 м    5/0 верхняя 
[Ci fib]
-21.2 -23.5 82 -24  1039.5  0.7  731  321           
18 19.01.17 240 (ЮЗ) 20000 м    ясно 
-24.7 -27.5 77 -25  1040.6  0.1  731  326           
21 19.01.17 тихо ()   20000 м    ясно 
-27.9 -31.1 74 -28  1041.1  -0.3  731  330           
00 20.01.17 тихо ()   20000 м    ясно 
-30 -33.4 72 -30  1041.5  -0.2  731  333  -30.2      67  равномерный
сухой снег
100% 
03 20.01.17 тихо ()   20000 м    ясно 
-29.9 -33.4 71 -30  1040.3  -1.1  730  332  -31.5         
06 20.01.17 200 (Ю) 20000 м    ясно 
-13.1 -15.6 81 -15  1034.4  -1.3  729  310           
09 20.01.17 210 (ЮЗ) 20000 м    3/0 верхняя 
[Ci fib]
-12.7 -16.1 76 -15  1033.4  -0.8  728  309           
12 20.01.17 220 (ЮЗ) 20000 м    ясно 
-14.1 -16.6 81 -16  1033  -0.7  728  310    -11.8       
15 20.01.17 210 (ЮЗ) 20000 м    ясно 
-12.5 -15.5 78 -16  1030.9  -1.6  726  308           
18 20.01.17 220 (ЮЗ) 20000 м    ясно 
-12 -15.4 76 -14  1029.5  -1.2  726  307           
21 20.01.17 200 (Ю) 20000 м    ясно 
-12.3 -15.7 76 -14  1028.5  -1  725  307           
00 21.01.17 200 (Ю) 20000 м    ясно 
-11.7 -15.3 75 -15  1027  -1.2  724  306  -14.1      67  равномерный
сухой снег
100% 
03 21.01.17 190 (Ю) 20000 м  слаб. снег  10/10 2000 м 
[As trans]
-10.3 -13.2 79 -15  1025.3  -1.3  723  304           
06 21.01.17 190 (Ю) 5{11}  20000 м  позёмок{снег}  6/6 2000 м средняя 
[As trans]
-8.2 -12.3 72 -13  1023.5  -1.2  722  301           
09 21.01.17 190 (Ю) 20000 м    5/0 верхняя 
[Ci sp]
-7.2 -13.2 62 -11  1022.1  -1  721  300           
12 21.01.17 190 (Ю) 5-10{10}  20000 м  позёмок  5/0 верхняя 
[Ci sp]
-7.3 -13.5 61 -12  1021  -1.1  720  299    -7.1  0.2     
15 21.01.17 200 (Ю) 5-10{13}  20000 м  позёмок  8/8 2000 м средняя 
[As trans]
-6.7 -11.6 68 -11  1018.9  -1.8  719  298           
18 21.01.17 210 (ЮЗ) 3{11}  20000 м    4/0 верхняя 
[Ci sp]
-6.7 -11.9 66 -9  1018.4  -0.5  719  298           
21 21.01.17 190 (Ю) 4{10}  20000 м    5/0 верхняя 
[Ci sp]
-6.3 -10.7 71 -10  1017.9  -0.3  718  297           
Время (UTC), дата Ветер
(°,м/с) 
Видим.   Явления Облачность Т
(°С)
Тd
(°С)
f(%) Тe
(°С)
Pmin
(гПа)
dP
(гПа)
Po
(мм)
O2
(г/м3)
Тmin Tmax R s Состояние
почвы

Для получения пояснительной информации подведите курсор к названию столбца.

ПОГОДА в Каце - архив

Всё, что Вы хотите узнать о погоде в Каце - удобно и подробно!

Выберите нужную дату (начиная с 1 января 2015* года) и нажмите кнопку "Найти".
Будут отображены архивные сводки погоды по пункту Каца, начиная с указанной даты.


Отображать данные в формате CSV (для использования в таблицах Excel)


Внимание! Наш архив погоды предназначен исключительно для личного некоммерческого использования в познавательных целях. Если Вам необходимы официальные справки о состоянии погоды (для производственных, юридических, коммерческих и т.п. целей), обращайтесь в органы Росгидромета.

*Примечание: данная дата относится к архиву по метеостанциям СССР (Россия, СНГ, Балтия).
Архив по метеостанциям Зарубежной Европы и Азии (кроме Китая) хранится 10 дней, по другим регионам земного шара (Китай, Африка, Америка, Австралия, Океания) - 1 день.

Каца - район местоположения метеостанции


Название, широта, долгота, высота метеостанции:
Каца 56.1°ш. 92.2°д. 479 м над ур. моря [Российская Федерация]

Дополнительная информация

В oтличие oт бoльшинства пoгoдных сайтoв мы публикуем пoдрoбную метеoинфoрмацию в детальнoм прoфессиoнальнoм фoрмате.

Характеристики температуры и влажнoсти вoздуха измеряются на высoте 2 м в тени вдали oт зданий и деревьев.
Скoрoсть ветра измеряется на высoте 10 м (на урoвне рoста челoвека скoрoсть ветра ниже в 1.5-2 раза). Если метеoстанция нахoдится в гoрoде или в лесу, тo скoрoсть ветра занижена на 2-4 м/с пo сравнению с oткрытым местoм. Скoрoсть ветра над акватoриями крупных рек и oзёр, а также на вершинах хoлмoв на 2-5 м/с выше, чем в oбычных услoвиях.
Атмoсфернoе давление в разных тoчках местнoсти мoжет значительнo oтличаться oт давления на метеoстанции, в зависимoсти oт услoвий рельефа (при пoдъёме на 10 м давление пoнижается примернo на 1 мм рт.ст.).